Presure
173 168 182 147 201 195 206 192 199 182 176 114 175 172 135 131 139 153 156 154 164 144 144 124 137 137 132 146 152 126 130 143 153 190 193 165 142 165 140 139 141 138 142 179 168
197 189 161 212 188 158 173 210 197 186 199 174 185 142 164 178 173 151 142 170 168 180 147 119 150 126 135 117 123 146 145 155 150 177 169 150 176 191 156 155 138 175 166 164 189
191 153 201 209 215 203 200 202 194 194 202 196 186 200 133 157 139 156 133 178 163 179 177 178 179 172 164 163 174 116 126 151 152 113 168 135 134 131 131 124 173 125 133 159 153
197 199 164 191 213 216 223 216 215 221 187 227 187 204 191 137 173 179 171 142 159 168 145 136 159 158 162 133 142 157 194 158 131 164 136 133 123 117 125 179 145 121 152 128 137
194 211 192 203 214 207 229 200 240 248 195 209 196 208 191 203 194 199 165 148 185 167 167 132 152 147 135 158 156 170 162 157 157 175 180 145 148 147 131 114 122 166 142 134 114
196 214 205 211 189 172 222 222 223 205 186 229 242 215 221 193 173 184 209 157 189 146 178 164 150 141 161 168 138 151 178 140 160 146 153 172 171 176 162 142 193 154 138 171 149
228 236 230 225 231 245 216 174 240 191 241 195 185 230 217 203 254 203 162 195 179 190 199 209 190 196 172 173 179 158 119 147 151 109 119 160 135 173 190 172 157 137 153 127 140
220 187 218 209 211 215 240 210 222 222 252 222 255 198 241 236 233 232 197 233 203 216 202 217 143 229 203 191 173 178 148 146 174 145 147 140 159 145 134 137 155 166 181 138 175
164 192 233 166 202 198 234 229 257 273 193 278 330 313 291 213 250 320 182 237 202 226 274 198 233 179 164 202 183 166 201 199 180 165 131 166 170 144 182 176 177 176 182 197 175
212 245 211 238 252 270 189 321 212 296 203 256 254 241 237 200 227 319 272 261 228 287 183 203 199 178 211 143 176 201 161 158 147 187 189 186 167 182 129 198 200 173 185 114 164
151 227 290 241 231 243 249 255 239 214 262 237 246 264 268 259 200 254 214 336 340 321 309 199 271 211 212 200 220 218 199 204 214 214 153 207 149 191 194 202 184 176 179 111 180
248 190 265 241 183 317 231 265 272 278 243 304 293 298 295 225 259 259 252 209 268 332 329 287 257 252 216 242 259 223 205 201 209 213 208 201 207 142 214 207 204 199 190 206 190
267 296 307 237 307 372 366 362 340 347 347 365 350 301 279 288 287 275 251 265 294 226 330 311 232 311 299 296 262 226 238 195 222 222 216 213 212 211 220 239 218 219 221 217 211
310 366 361 353 335 351 353 352 342 348 347 355 340 315 337 339 336 327 327 308 285 270 333 322 265 283 306 169 285 301 204 277 224 225 265 219 209 209 209 216 207 212 223 174 201
361 321 328 344 357 358 357 358 288 300 326 317 353 336 324 316 315 309 293 303 322 328 325 338 300 302 153 304 300 298 224 287 286 213 291 220 290 276 227 190 223 238 199 234 225
360 356 306 318 298 292 291 293 285 302 362 376 340 310 281 306 301 307 306 316 314 310 310 322 309 289 280 297 297 296 296 293 289 289 287 279 292 249 228 245 284 210 249 271 220
348 311 290 292 269 340 369 357 350 339 341 357 352 293 266 281 296 294 285 307 308 309 303 313 285 305 299 288 298 295 292 291 290 289 291 287 283 229 267 298 301 298 291 286 172
298 284 281 366 352 339 333 327 321 339 404 346 416 345 327 283 278 273 272 297 302 296 301 303 304 301 297 295 293 302 188 300 301 297 298 291 300 298 293 302 297 289 265 303 311
275 357 357 337 330 325 315 435 378 377 379 373 413 332 401 305 282 277 272 296 301 303 294 291 294 303 302 295 293 300 310 315 317 315 322 320 317 315 318 324 343 339 256 214 305
265 355 340 327 316 319 456 410 418 349 396 369 379 338 363 357 300 285 277 282 284 284 278 280 297 297 294 289 290 296 306 313 326 225 327 331 327 326 343 347 337 332 316 304 288
358 343 327 313 312 322 395 379 379 380 381 368 359 364 315 356 326 297 282 275 284 270 275 286 293 285 295 286 284 288 299 299 306 322 319 311 374 353 340 350 342 343 321 318 307
349 337 320 303 308 369 388 375 367 367 371 371 366 347 368 368 337 307 289 277 278 281 267 272 288 288 285 294 328 321 283 305 329 315 306 363 352 335 335 333 334 316 306 300 291
345 332 311 298 307 381 370 359 346 346 347 370 358 354 360 378 348 310 294 279 281 277 259 253 273 274 273 277 307 315 318 317 317 319 355 347 322 328 321 319 305 299 293 289 282
349 332 303 302 337 380 369 357 348 354 381 378 365 360 360 367 341 308 295 286 281 269 283 288 284 289 284 274 311 317 345 372 367 354 343 323 309 322 309 298 290 285 286 276 273
341 328 295 304 383 387 368 349 332 378 308 370 369 374 345 336 328 314 301 294 287 273 274 286 287 274 317 319 308 345 367 357 355 343 320 316 308 302 293 287 278 275 275 276 260
337 315 292 323 378 364 363 345 360 372 366 354 365 355 333 320 313 312 306 303 304 259 285 285 314 311 314 298 351 358 353 355 342 320 317 307 299 285 282 278 272 268 275 259 295
328 303 307 406 371 359 338 338 369 359 348 343 337 330 318 310 308 306 309 295 277 285 304 304 308 295 349 344 346 340 336 329 317 315 305 296 284 277 269 269 271 269 262 293 250
Wind_Speed
62 70 67 68 68 67 64 75 71 77 80 59 78 77 63 59 61 66 67 68 68 59 60 50 51 52 47 52 53 42 44 48 46 63 57 50 43 47 42 40 39 35 38 45 54
73 70 76 68 70 68 70 68 72 76 78 84 68 70 77 82 78 69 65 73 73 75 65 52 64 51 55 50 48 51 50 55 50 59 53 45 55 58 49 47 39 52 51 46 53
71 71 80 80 77 70 71 70 74 79 76 82 76 85 70 79 66 75 66 83 74 78 76 76 74 72 71 65 69 51 52 55 53 44 57 45 43 46 42 38 54 35 39 53 47
87 82 72 65 83 83 83 81 79 82 88 81 91 83 93 69 89 89 85 70 76 78 67 60 70 68 71 63 62 64 73 62 52 61 51 48 44 41 46 61 48 40 51 39 42
78 99 81 78 82 76 88 72 92 94 80 81 89 83 94 89 84 91 85 78 94 81 80 64 68 63 61 70 66 71 67 63 61 69 67 57 58 55 53 38 45 61 47 45 44
83 103 98 93 71 78 89 93 79 84 80 86 83 82 82 100 82 98 89 81 97 80 92 79 71 66 74 76 61 65 75 57 66 57 60 68 66 66 66 57 68 58 52 66 57
105 107 108 97 98 107 76 86 95 86 92 94 94 87 81 98 96 100 79 103 98 94 97 98 97 97 84 82 84 74 61 62 60 42 57 64 59 71 75 71 61 54 59 45 52
105 81 93 82 87 88 103 74 96 90 103 74 105 96 95 92 79 93 96 91 105 97 100 96 76 96 96 96 81 88 71 70 76 59 58 59 70 56 56 55 63 66 72 50 76
68 79 97 74 90 82 79 96 88 85 75 79 73 76 87 95 92 73 90 78 106 91 99 98 100 79 77 97 93 82 95 94 83 72 62 72 78 61 80 76 74 73 76 78 75
99 97 86 89 74 84 86 72 83 74 68 84 77 79 77 97 91 68 84 88 94 87 97 96 101 83 102 73 83 94 73 72 62 90 89 85 74 83 53 83 83 76 81 54 70
80 91 76 85 85 83 80 79 87 74 74 89 84 78 78 81 78 80 88 67 58 69 84 105 97 104 105 102 106 102 97 98 97 94 66 92 60 92 87 86 83 79 80 54 83
81 74 79 84 62 75 74 77 74 78 70 63 69 65 67 80 79 83 85 92 72 56 63 88 91 89 87 103 99 96 100 96 101 98 96 91 93 56 98 89 86 87 83 89 84
79 75 74 70 67 63 67 67 66 65 61 53 56 64 71 67 69 76 77 80 70 87 54 73 97 80 85 85 80 77 83 93 104 103 98 96 96 97 100 99 95 96 97 94 92
75 66 67 66 61 63 64 60 59 63 62 53 52 58 53 53 54 55 56 60 68 72 53 55 80 76 79 77 81 84 102 88 98 93 99 101 93 93 94 94 85 89 91 70 85
72 63 60 64 63 64 61 59 61 61 60 52 49 52 52 53 51 55 60 56 50 51 50 46 66 72 66 77 81 81 101 85 85 102 86 99 92 91 98 71 94 93 77 93 93
73 67 55 54 53 55 58 58 62 61 57 54 49 49 61 53 53 51 51 50 50 50 51 45 54 71 74 75 77 78 79 81 81 81 80 83 82 89 93 91 89 87 85 97 85
65 56 54 55 60 47 42 44 46 45 51 48 45 57 65 60 55 54 55 49 49 48 47 43 52 53 63 72 73 76 78 80 80 78 75 76 76 68 73 74 74 75 76 75 65
55 56 57 37 37 40 43 42 41 47 29 44 30 44 56 64 63 62 60 50 49 47 44 41 39 48 58 64 69 67 69 77 77 76 75 74 69 65 64 65 64 63 64 58 53
59 49 39 41 40 39 42 24 29 26 30 28 17 46 37 61 63 62 61 52 50 49 42 42 41 41 49 59 63 61 60 63 67 68 66 66 66 63 60 55 49 45 59 42 42
60 41 39 40 41 40 7 9 10 31 22 27 24 41 34 51 61 61 60 53 49 45 44 45 38 42 49 56 59 57 55 55 52 42 51 49 51 47 40 39 36 33 34 36 39
42 39 39 40 41 40 10 14 15 17 19 25 29 29 46 49 62 62 59 56 52 48 42 39 40 49 43 54 57 54 52 50 49 45 41 38 31 31 33 26 26 24 25 23 24
43 38 39 39 41 30 10 11 15 14 19 23 30 37 25 45 56 60 59 57 54 47 45 44 41 43 44 43 37 41 45 44 39 36 33 25 24 28 23 23 22 23 22 24 25
43 40 37 40 40 19 17 17 22 21 21 25 31 35 35 35 48 57 59 56 53 47 49 46 47 48 49 47 37 39 39 37 33 27 22 25 27 22 22 23 24 22 23 23 20
41 39 38 38 36 21 19 17 22 17 18 23 31 34 31 33 43 53 57 55 52 44 39 39 38 39 43 29 35 32 28 24 22 20 26 27 25 23 26 26 22 22 20 19 17
39 38 38 40 25 23 18 21 24 14 20 17 22 29 31 32 37 46 52 53 47 41 39 36 37 42 33 30 31 25 21 20 20 28 27 26 27 28 26 24 22 21 19 16 15
37 37 38 42 22 16 16 18 12 10 14 16 21 31 33 34 36 40 45 44 40 42 34 35 28 28 29 28 20 20 19 23 30 30 27 30 29 27 25 23 22 20 15 15 14
37 36 38 24 22 17 18 14 10 15 19 24 28 31 33 33 34 37 37 35 35 33 28 27 26 26 17 17 17 19 25 29 28 28 33 32 29 27 25 23 19 18 16 15 22
Wind_Direction
282 285 284 272 275 272 271 256 255 258 257 261 256 255 254 253 252 250 247 246 248 248 251 243 250 249 246 251 255 246 248 252 255 258 257 255 250 255 249 248 247 241 253 251 256
296 282 274 285 265 267 269 269 261 255 251 255 263 256 254 253 252 252 250 249 249 256 249 252 250 242 247 246 245 251 250 254 254 257 254 251 252 259 252 254 246 256 254 251 253
291 284 291 288 285 271 262 262 256 258 253 252 253 249 256 254 251 253 254 256 250 252 251 252 252 249 250 256 254 247 248 253 250 245 255 252 251 250 246 240 255 237 249 257 259
295 291 285 278 287 282 278 271 271 270 250 268 249 247 248 255 253 252 252 252 249 249 251 250 249 248 249 248 252 249 257 251 247 252 249 251 247 246 248 254 253 239 256 244 252
293 293 281 285 287 281 282 264 278 275 251 257 254 251 249 247 252 247 252 251 252 250 250 247 250 251 248 249 248 250 255 249 249 255 257 249 251 253 247 245 247 253 251 253 242
297 293 285 291 274 280 281 277 278 254 256 265 274 256 257 249 250 250 245 253 250 252 253 248 247 245 250 250 246 249 250 244 249 245 250 253 257 254 253 252 256 252 254 254 260
291 289 289 291 290 287 286 264 282 254 281 248 257 262 251 249 266 247 255 247 251 249 250 250 251 250 252 254 251 250 252 246 247 268 257 251 247 253 258 254 255 251 259 248 259
290 287 288 284 289 278 282 270 276 275 276 263 277 252 264 268 262 251 256 250 247 247 247 249 254 252 248 251 248 254 247 248 251 243 247 246 254 249 251 255 259 259 257 253 258
278 292 291 273 272 278 272 283 274 269 270 259 267 267 262 248 255 251 252 253 248 250 251 246 250 252 252 247 251 252 251 252 252 251 249 251 253 251 256 256 258 259 259 259 261
291 288 287 287 286 286 269 279 273 271 263 269 261 268 260 245 256 259 253 256 249 246 249 245 246 250 246 246 252 250 248 248 248 251 253 253 255 255 258 258 258 260 259 244 262
280 293 290 285 282 278 276 274 269 272 264 268 267 262 259 257 260 255 249 263 256 246 244 249 251 246 245 250 249 248 250 250 252 252 252 254 256 255 254 257 255 260 260 251 263
294 282 292 285 274 285 284 272 271 269 274 265 263 261 260 246 257 254 255 253 250 250 244 245 249 253 255 250 249 254 252 250 251 252 250 253 254 257 258 257 257 259 260 263 263
298 298 297 282 288 279 277 277 274 273 272 266 264 258 256 255 255 254 254 253 253 256 245 242 246 246 246 248 249 249 253 252 251 251 252 252 253 255 258 261 260 262 264 265 265
304 295 294 296 290 288 285 284 281 278 273 269 264 258 259 256 254 254 253 251 252 250 253 244 252 245 245 246 248 247 255 251 255 256 253 254 257 258 259 259 261 263 265 265 269
306 302 301 300 294 289 288 282 273 272 271 262 261 256 252 251 250 250 249 251 252 254 250 255 243 242 248 246 247 249 252 250 251 258 252 258 254 255 259 252 263 266 267 269 270
308 304 301 299 287 283 280 276 274 273 272 269 256 246 248 246 247 248 251 253 251 246 246 248 243 243 246 245 247 249 250 251 252 252 252 252 255 260 263 263 260 267 264 265 272
312 307 299 295 290 288 286 282 280 276 273 267 256 250 251 247 243 245 249 249 250 248 245 247 244 240 241 245 246 248 250 252 253 254 254 253 254 257 256 261 261 262 263 265 265
313 303 302 301 296 293 289 285 281 275 278 260 251 242 232 241 244 246 248 246 248 244 245 244 238 239 241 243 246 249 247 253 255 256 257 257 259 261 259 263 263 262 260 265 265
309 310 307 302 301 298 291 264 275 265 246 250 245 236 224 231 237 241 244 242 244 246 237 233 233 244 241 243 246 247 250 253 254 258 259 261 263 264 266 267 263 261 262 263 260
307 309 308 306 306 304 181 252 227 263 222 235 231 228 227 224 230 234 238 238 238 234 233 232 237 236 238 241 245 249 251 253 259 250 263 263 263 262 252 249 251 248 249 251 253
314 310 308 309 309 312 268 250 238 232 225 224 221 216 229 224 221 228 232 235 235 230 229 232 237 235 243 243 248 251 253 258 262 262 262 261 240 237 236 234 228 222 226 223 227
311 308 308 309 314 310 261 239 246 243 229 218 223 228 216 218 222 224 227 231 232 231 227 228 235 236 240 248 254 251 259 260 256 258 257 232 215 222 219 214 201 204 212 221 228
309 306 307 309 312 278 263 260 262 256 250 221 220 226 217 205 216 219 223 229 231 228 230 242 232 237 243 247 252 251 251 253 253 249 220 201 210 204 199 186 195 203 213 220 223
309 305 309 310 309 254 250 253 258 265 228 220 218 219 213 197 211 218 222 227 229 225 231 236 238 243 245 250 251 249 250 242 230 208 190 196 190 185 178 188 194 205 210 214 225
313 308 309 312 276 246 248 251 272 250 257 218 211 201 188 193 203 215 221 225 227 224 228 237 240 240 250 247 248 246 235 213 194 180 183 182 181 174 180 186 195 202 206 206 222
314 310 308 315 254 253 241 258 264 213 194 186 184 174 180 189 202 210 219 223 226 222 232 234 241 240 242 243 237 225 204 179 169 178 177 171 171 175 180 186 193 203 192 213 192
314 310 313 225 233 230 243 245 205 177 164 166 162 172 181 192 202 211 215 216 216 224 230 228 230 233 249 224 211 189 177 168 164 165 165 167 169 175 184 190 189 182 196 174 169